This is the latest recevied weather packets stored in our database for station/object N4MGC. If no packets are shown the sender has not sent any weather packets the latest 1 day(s).
| Time | Temp. | Humidity | Pressure | Rain* | Wind** | Luminosity | Snow |
|---|---|---|---|---|---|---|---|
| 1777999897 | 24.44° C | 61% | 1014.1 hPa | 0 mm | 0.45 m/s, 182° | 502 W/m² | - |
| 1777999592 | 25° C | 63% | 1014 hPa | 0 mm | 0 m/s | 730 W/m² | - |
| 1777999291 | 24.44° C | 64% | 1014.3 hPa | 0 mm | 0.45 m/s, 284° | 768 W/m² | - |
| 1777998989 | 23.89° C | 63% | 1014.2 hPa | 0 mm | 0 m/s | 215 W/m² | - |
| 1777998686 | 23.33° C | 64% | 1014 hPa | 0 mm | 0 m/s | 840 W/m² | - |
| 1777998383 | 22.78° C | 63% | 1014 hPa | 0 mm | 1.34 m/s, 273° | 242 W/m² | - |
| 1777998081 | 22.78° C | 64% | 1014.1 hPa | 0 mm | 0 m/s | 225 W/m² | - |
| 1777997778 | 22.78° C | 66% | 1014.4 hPa | 0 mm | 0.89 m/s, 181° | 159 W/m² | - |
| 1777997475 | 22.78° C | 64% | 1014.3 hPa | 0 mm | 0.89 m/s, 202° | 750 W/m² | - |
| 1777997173 | 23.33° C | 62% | 1014 hPa | 0 mm | 2.24 m/s, 194° | 649 W/m² | - |
| 1777996870 | 22.78° C | 68% | 1014.2 hPa | 0 mm | 0 m/s | 776 W/m² | - |
| 1777996566 | 22.22° C | 64% | 1014.1 hPa | 0 mm | 0 m/s | 828 W/m² | - |
| 1777996262 | 22.78° C | 65% | 1014.2 hPa | 0 mm | 0 m/s | 783 W/m² | - |
| 1777995958 | 22.78° C | 63% | 1014.3 hPa | 0 mm | 0.89 m/s, 199° | 259 W/m² | - |
| 1777995655 | 22.22° C | 64% | 1014.2 hPa | 0 mm | 0.45 m/s, 156° | 675 W/m² | - |
| 1777995352 | 21.67° C | 66% | 1014.5 hPa | 0 mm | 0 m/s | 697 W/m² | - |
| 1777995050 | 21.67° C | 67% | 1014.4 hPa | 0 mm | 0 m/s | 735 W/m² | - |
| 1777994746 | 21.67° C | 67% | 1014.3 hPa | 0 mm | 1.34 m/s, 199° | 715 W/m² | - |
| 1777994442 | 21.67° C | 70% | 1014.5 hPa | 0 mm | 0 m/s | 205 W/m² | - |
| 1777994137 | 21.11° C | 71% | 1014.4 hPa | 0 mm | 1.34 m/s, 217° | 797 W/m² | - |
| 1777993835 | 21.11° C | 71% | 1014.3 hPa | 0 mm | 0 m/s | 786 W/m² | - |
| 1777993531 | 21.11° C | 71% | 1014.4 hPa | 0 mm | 0 m/s | 693 W/m² | - |
| 1777993227 | 20.56° C | 72% | 1014.5 hPa | 0 mm | 0 m/s | 680 W/m² | - |
| 1777992923 | 20.56° C | 75% | 1014.3 hPa | 0 mm | 0 m/s | 334 W/m² | - |
| 1777992622 | 20° C | 75% | 1014.3 hPa | 0 mm | 1.34 m/s, 220° | 315 W/m² | - |
* Rain latest hour (hover to see other rain measurements)
** Current wind speed in m/s (hover to see current wind gust speed)